User: anonymous   Login
Location: Unspecified
(0.0000°N, 0.0000°E)
Time: 18:41:03
(UTC+00:00)
Language:

APRIZESAT 8 - Orbit

View from above orbital plane
View from above orbital plane
View from above satellite
View from above satellite

Ground track
Ground track

The orbit data is extracted from the following two-line orbital elements,

1 39425U 13066K   17267.67152053 +.00000070 +00000-0 +15513-4 0  9997
2 39425 097.6183 307.0284 0050726 301.6051 058.0217 14.80972301207354
Epoch (UTC): 24 September 2017 16:06:59
Eccentricity: 0.0050726
inclination: 97.6183°
perigee height: 591 km
apogee height: 662 km
right ascension of ascending node: 307.0284°
argument of perigee: 301.6051°
revolutions per day: 14.80972301
mean anomaly at epoch: 58.0217°
orbit number at epoch: 20735

The dashed part of the orbit path shows where the satellite is in the earth's shadow,  

DLR